[[{"header":{"parameterUnit":"m.s-1","parameterCategory":1,"la1":30.2991,"la2":30.254,"lo1":-89.0895,"lo2":-89.0444,"dy":0.0017,"dx":0.0017,"nx":28,"ny":28,"refTime":"2023-07-22T09:00:00:Z","depth":0,"parameterNumber":2,"parameterNumberName":"U-component_of_WINDS"},"data":[0,0,0,0,0,0,0,0,0,0,0,0,0,0,0,0,0,0,0,0,0,0,0,0,0,0,0,0,0,0,0,0,0,0,0,0,0,0,0,0,0,0,0,0,0,0,0,0,0,0,0,0,0,0,0,0,0,0,3.7324,3.7324,0,3.7384,3.7385,3.7385,3.7287,3.7284,3.728,3.7277,3.7338,3.7342,3.7347,0,0,0,0,0,0,0,0,0,0,0,0,0,3.7122,3.7126,3.7324,3.7325,3.7325,3.7384,3.7385,3.7385,3.7288,3.7284,3.728,3.7276,3.7336,3.7342,3.7347,0,0,0,0,0,0,0,0,0,0,0,0,0,3.7198,3.7127,3.7324,3.7284,3.7281,3.7384,3.7385,3.7386,3.7289,3.7284,3.7278,3.7274,3.7334,3.7341,3.7348,3.7492,0,0,3.737,3.7373,0,0,0,0,0,0,0,0,3.7194,3.7206,3.7289,3.7287,3.7283,3.7323,3.7335,3.7421,3.729,3.7286,3.7277,3.7271,3.7337,3.7343,3.7365,3.7495,3.7498,3.737,3.7375,3.7378,3.738,0,0,0,0,0,0,0,3.7189,3.7203,3.7347,3.729,3.7287,3.7262,3.7267,3.7351,3.7339,3.7286,3.7279,3.7287,3.7334,3.7359,3.7366,3.7499,3.737,3.7376,3.7381,3.7384,3.7747,3.7752,0,0,0,0,0,0,3.7189,3.7199,3.7345,3.7349,3.7225,3.7269,3.7275,3.7315,3.7337,3.7336,3.7291,3.7282,3.7349,3.7358,3.7368,3.7536,3.7378,3.7384,3.7388,3.7741,3.7748,3.7754,0,0,0,0,0,0,3.7185,3.7203,3.7343,3.7272,3.7288,3.7278,3.7324,3.7319,3.7344,3.7342,3.7339,3.7319,3.7346,3.7358,3.7461,3.7536,3.7387,3.7394,3.7735,3.7743,3.7751,3.7874,0,0,0,0,0,0,3.7179,3.7202,3.7258,3.7274,3.7292,3.7437,3.7329,3.7324,3.7356,3.7345,3.7367,3.7366,3.7343,3.7451,3.7469,3.7544,3.7399,3.7728,3.7739,3.7748,3.7864,3.7886,3.7905,0,0,0,0,0,3.7173,3.729,3.7261,3.7279,3.7362,3.7442,3.7452,3.7423,3.7363,3.7418,3.7416,3.7365,3.7526,3.7463,3.7481,3.756,3.7723,3.7736,3.7747,3.7854,3.7881,3.7904,0,0,0,0,0,0,3.7283,3.7292,3.7259,3.7386,3.7414,3.7425,3.7493,3.7453,3.7498,3.7486,3.7448,3.7454,3.7564,3.7573,3.7502,3.7699,3.7614,3.7631,3.7689,3.7715,3.7735,3.773,3.7405,0,0,0,0,0,3.7322,3.7387,3.7391,3.7502,3.7518,3.7504,3.7537,3.7513,3.754,3.7551,3.7557,3.7584,3.764,3.7679,3.7731,3.7865,3.7867,3.7928,3.7948,3.7965,3.7979,3.8048,3.8074,3.7793,3.7793,3.7793,0,0,3.7403,3.7416,3.7459,3.7525,3.7543,3.761,3.7514,3.7589,3.7637,3.7562,3.7659,3.7665,3.7693,3.7812,3.7865,3.7822,3.8057,3.7981,3.7994,3.7999,3.8063,3.8089,3.8113,3.7802,3.78,3.7799,0,0,3.7584,3.7602,3.7695,3.7716,3.7745,3.7734,3.7757,3.7774,3.7775,3.7872,3.7816,3.7873,3.7972,3.7993,3.8017,3.8205,3.8159,3.8224,3.833,3.8397,3.8419,3.8439,3.8503,3.8527,3.8238,3.8238,3.8238,0,3.7681,3.778,3.7748,3.7827,3.7856,3.7791,3.7884,3.7905,3.795,3.7971,3.7924,3.8044,3.8059,3.818,3.8226,3.8249,3.8271,3.822,3.8419,3.8438,3.8456,3.8516,3.8541,3.8246,3.8245,3.8244,3.8243,0,3.7896,3.7965,3.8037,3.8082,3.8119,3.8205,3.8185,3.8227,3.8199,3.8193,3.8292,3.8307,3.836,3.8387,3.8362,3.8505,3.8477,3.8425,3.8339,3.849,3.8547,3.857,3.8256,3.8254,3.8251,3.8249,0,0,3.8147,3.8173,3.8199,3.8217,3.8245,3.8297,3.8379,3.8431,3.8466,3.8499,3.8565,3.865,3.8601,3.8628,3.8604,3.8664,3.8808,3.8603,3.8603,3.8639,3.8963,3.9,3.9028,3.8778,3.8783,3.8786,3.896,0,3.8325,3.8467,3.844,3.8577,3.8639,3.8578,3.8649,3.8673,3.867,3.8721,3.8717,3.8776,3.8709,3.8725,3.8781,3.8779,3.8872,3.8766,3.8837,3.884,3.8829,3.9058,3.9098,3.9261,3.8982,3.8986,3.8989,0,3.8552,3.8593,3.8736,3.8751,3.8776,3.8841,3.8884,3.8935,3.896,3.8953,3.8983,3.8947,3.9027,3.8942,3.9049,3.8978,3.9005,3.9009,3.9014,3.9018,3.8922,3.9065,3.9313,3.9336,3.9024,3.9021,3.9018,0,3.8717,3.8808,3.8905,3.8923,3.8944,3.899,3.9001,3.9021,3.9053,3.9091,3.9111,3.9159,3.9184,3.9221,3.9199,3.9139,3.931,3.9223,3.9304,3.9305,3.9341,3.9338,3.9594,3.9364,3.9363,3.9363,3.9362,0,3.8917,3.9006,3.8979,3.9038,3.9136,3.9104,3.9202,3.9205,3.9223,3.9281,3.9232,3.9287,3.9255,3.9307,3.929,3.938,3.9393,3.9388,3.9382,3.9391,3.9391,3.9407,3.9394,3.9369,3.9368,3.9367,3.9366,0,3.9117,3.9103,3.9204,3.9215,3.922,3.9291,3.93,3.9355,3.9348,3.9421,3.9437,3.9425,3.9484,3.9466,3.9529,3.9518,3.9631,3.9612,3.9623,3.9617,3.9698,3.969,3.997,4.0004,3.9755,3.9758,3.976,0,3.9244,3.9311,3.933,3.9365,3.9379,3.9437,3.9469,3.944,3.9476,3.9508,3.9558,3.9613,3.9655,3.9751,3.9748,3.9796,3.9775,3.987,3.9782,3.9788,3.9773,3.9768,3.9773,3.9887,3.989,3.9892,3.9894,0,3.947,3.9459,3.9508,3.9554,3.9594,3.9629,3.9659,3.9691,3.9664,3.9706,3.9765,3.9798,3.9862,3.9915,3.9959,3.9968,3.9926,3.9923,3.9943,3.9952,3.9954,3.9951,3.9668,3.9916,3.9913,3.9912,3.9911,3.991,3.9635,3.9691,3.9712,3.9767,3.9787,3.9816,3.9867,3.9867,3.9916,3.9966,3.9946,4.0014,4.0035,4.0088,4.0104,4.0155,4.0119,4.015,4.0157,4.0164,4.0173,3.9948,4.0163,4.0163,4.0162,4.0162,4.0161,0,3.9856,3.9866,3.9918,3.9961,4.0004,3.9963,3.9993,4.0032,4.0092,4.0116,4.0158,4.0225,4.0276,4.0277,4.0325,4.0366,4.0348,4.0379,4.0374,4.0377,4.0205,4.0181,4.0393,4.0393,4.0393,4.0393,4.0393,4.0393,3.9976,4.0067,4.0059,4.0159,4.0168,4.0234,4.0255,4.0281,4.0299,4.0377,4.0419,4.042,4.0434,4.0482,4.0527,4.0526,4.0544,4.0582,4.0574,4.0412,4.0389,4.0367,4.0344,4.0587,4.0588,4.0741,4.0742,4.0743]},{"header":{"parameterUnit":"m.s-1","parameterCategory":1,"la1":30.2991,"la2":30.254,"lo1":-89.0895,"lo2":-89.0444,"dy":0.0017,"dx":0.0017,"nx":28,"ny":28,"refTime":"2023-07-22T09:00:00:Z","depth":0,"parameterNumber":3,"parameterNumberName":"V-component_of_WINDS"},"data":[0,0,0,0,0,0,0,0,0,0,0,0,0,0,0,0,0,0,0,0,0,0,0,0,0,0,0,0,0,0,0,0,0,0,0,0,0,0,0,0,0,0,0,0,0,0,0,0,0,0,0,0,0,0,0,0,0,0,3.602,3.602,0,3.6092,3.6092,3.6093,3.6033,3.6031,3.6028,3.6026,3.61,3.6104,3.6108,0,0,0,0,0,0,0,0,0,0,0,0,0,3.5828,3.5832,3.6019,3.602,3.6021,3.6092,3.6093,3.6093,3.6034,3.6031,3.6028,3.6025,3.6098,3.6103,3.6108,0,0,0,0,0,0,0,0,0,0,0,0,0,3.5907,3.5833,3.6019,3.6,3.5999,3.6091,3.6093,3.6094,3.6034,3.6031,3.6027,3.6023,3.6096,3.6103,3.6109,3.6224,0,0,3.6129,3.6132,0,0,0,0,0,0,0,0,3.5903,3.5914,3.6002,3.6001,3.6,3.605,3.6052,3.6138,3.6035,3.6021,3.6026,3.6021,3.6086,3.6093,3.6115,3.6228,3.6231,3.6129,3.6133,3.6136,3.6138,0,0,0,0,0,0,0,3.5897,3.5911,3.6048,3.6003,3.6002,3.5987,3.5994,3.6068,3.6074,3.6022,3.6018,3.6027,3.6085,3.6109,3.6116,3.6232,3.6129,3.6135,3.6139,3.6141,3.6441,3.6445,0,0,0,0,0,0,3.5894,3.5906,3.6046,3.605,3.5941,3.5993,3.6001,3.6038,3.6073,3.6074,3.603,3.6024,3.61,3.6109,3.6119,3.6254,3.6136,3.6142,3.6146,3.6437,3.6442,3.6446,0,0,0,0,0,0,3.589,3.5907,3.6043,3.5977,3.5993,3.6001,3.6042,3.6041,3.6065,3.6079,3.608,3.6054,3.6097,3.6109,3.6198,3.6256,3.6145,3.6151,3.6432,3.6438,3.6444,3.6528,0,0,0,0,0,0,3.5885,3.5906,3.595,3.5979,3.5997,3.6122,3.6046,3.6045,3.6076,3.6069,3.6101,3.6103,3.6095,3.6189,3.6204,3.6263,3.6156,3.6427,3.6435,3.6442,3.652,3.6536,3.655,0,0,0,0,0,3.5878,3.5972,3.5953,3.597,3.6053,3.6126,3.6136,3.6125,3.6081,3.6125,3.6134,3.6102,3.6247,3.6198,3.6215,3.6277,3.6423,3.6432,3.6441,3.6513,3.6533,3.655,0,0,0,0,0,0,3.5951,3.5975,3.5955,3.606,3.6091,3.6115,3.6171,3.6146,3.6191,3.6182,3.6166,3.6174,3.6267,3.6281,3.6226,3.6389,3.6328,3.6341,3.6377,3.6396,3.641,3.6405,3.6161,0,0,0,0,0,3.5979,3.6036,3.6054,3.6146,3.6162,3.6164,3.6195,3.6184,3.6215,3.6228,3.6243,3.6275,3.6327,3.6362,3.6411,3.6521,3.6527,3.6572,3.6587,3.6599,3.6611,3.6668,3.6688,3.6476,3.6476,3.6476,0,0,3.6038,3.6058,3.6096,3.6161,3.6183,3.6242,3.6175,3.6241,3.6284,3.6238,3.6322,3.6334,3.6368,3.6468,3.6512,3.6482,3.667,3.6611,3.6621,3.6625,3.668,3.67,3.6717,3.6482,3.6481,3.648,0,0,3.6175,3.6197,3.6275,3.6298,3.6333,3.6333,3.6352,3.6379,3.6385,3.647,3.6435,3.6486,3.6577,3.6602,3.6627,3.6771,3.6743,3.6788,3.6866,3.6922,3.6939,3.6954,3.7004,3.7023,3.6799,3.6799,3.68,0,3.6244,3.6332,3.6318,3.6385,3.6414,3.6374,3.6452,3.6475,3.6525,3.6545,3.651,3.6623,3.6643,3.6747,3.6781,3.6803,3.6823,3.6784,3.6938,3.6952,3.6966,3.7014,3.7033,3.6805,3.6804,3.6803,3.6803,0,3.6414,3.6475,3.6534,3.6581,3.6617,3.6689,3.6685,3.6722,3.6707,3.6711,3.6796,3.6819,3.6871,3.6894,3.6881,3.6996,3.6976,3.694,3.6878,3.6992,3.7036,3.7054,3.6812,3.681,3.6809,3.6807,0,0,3.6601,3.6638,3.666,3.668,3.6714,3.6761,3.6831,3.6881,3.6913,3.6948,3.7005,3.7082,3.7048,3.7076,3.7065,3.7114,3.7225,3.7072,3.7072,3.7099,3.7352,3.7378,3.74,3.7206,3.721,3.7213,3.7348,0,3.6739,3.686,3.6848,3.6963,3.7019,3.698,3.7041,3.7068,3.7073,3.712,3.7124,3.7179,3.7131,3.7147,3.7194,3.7202,3.7276,3.7192,3.7259,3.7261,3.7251,3.7423,3.7452,3.7579,3.7366,3.7369,3.7371,0,3.6917,3.6957,3.7077,3.7101,3.7123,3.7178,3.7222,3.7268,3.7297,3.7297,3.7328,3.7307,3.7376,3.7312,3.7406,3.735,3.7376,3.7383,3.7388,3.7394,3.7323,3.7433,3.762,3.7639,3.7399,3.7396,3.7394,0,3.7039,3.7123,3.7205,3.7224,3.7254,3.7293,3.7308,3.7333,3.7364,3.7402,3.7421,3.7468,3.7493,3.7529,3.7521,3.7476,3.7616,3.7553,3.7617,3.7618,3.7649,3.7647,3.7842,3.7667,3.7667,3.7666,3.7666,0,3.7194,3.7269,3.726,3.7311,3.7393,3.7378,3.746,3.7469,3.7492,3.7543,3.7513,3.7561,3.7548,3.7596,3.759,3.7667,3.7679,3.768,3.7678,3.7683,3.7683,3.77,3.7691,3.7671,3.767,3.7669,3.7668,0,3.7345,3.7343,3.743,3.745,3.7457,3.7517,3.7534,3.7581,3.7583,3.7648,3.7662,3.7665,3.7719,3.7714,3.7776,3.7772,3.7868,3.7855,3.7858,3.7855,3.792,3.7913,3.8132,3.816,3.7967,3.7969,3.7971,0,3.7444,3.7501,3.7527,3.7559,3.7576,3.7628,3.7658,3.7645,3.7678,3.7714,3.7757,3.7808,3.7848,3.7937,3.7944,3.799,3.7978,3.8051,3.7985,3.7987,3.7978,3.7974,3.7979,3.8064,3.8067,3.8068,3.807,0,3.762,3.7615,3.766,3.7705,3.7742,3.7776,3.7807,3.7835,3.7824,3.7863,3.7918,3.7949,3.8011,3.8062,3.8105,3.8119,3.8093,3.8091,3.8108,3.8114,3.8113,3.8113,3.7893,3.8086,3.8084,3.8083,3.8082,3.8082,3.7747,3.7795,3.782,3.7871,3.7893,3.7922,3.7967,3.7973,3.8019,3.8068,3.8057,3.8119,3.8144,3.82,3.8218,3.8265,3.8239,3.8264,3.8271,3.8277,3.8284,3.8105,3.8273,3.8273,3.8273,3.8272,3.8272,0,3.792,3.7934,3.7981,3.8025,3.8064,3.8035,3.8068,3.8103,3.8157,3.8183,3.8223,3.8285,3.8334,3.8345,3.8391,3.8427,3.8416,3.8439,3.8436,3.844,3.8306,3.8286,3.8447,3.8447,3.8447,3.8447,3.8447,3.8447,3.8015,3.8093,3.8091,3.818,3.8193,3.8253,3.8274,3.83,3.8321,3.8391,3.8432,3.8438,3.8457,3.8504,3.8547,3.8549,3.8567,3.8596,3.8593,3.8467,3.8449,3.8433,3.8414,3.86,3.86,3.8723,3.8724,3.8725]}]]